Location: Unspecified
(0.0000°N, 0.0000°E)
Time: 23:56:14
(UTC+00:00)

Explorer 25 - Pass Details

Date: 10 March 2026
Orbit: 523 x 2264 km, 81.3° (Epoch: 14 April)

Event Time Altitude Azimuth Distance (km) Brightness Sun altitude
Rises 19:53:03 0° 203° (SSW) 5,817 12.9 -25.7°
Reaches altitude 10° 19:57:13 10° 211° (SSW) 4,732 12.4 -26.7°
Maximum altitude 20:07:43 34° 269° (W) 2,814 11.3 -29.3°
Drops below altitude 10° 20:16:09 10° 330° (NNW) 3,740 11.8 -31.4°
Sets 20:19:07 0° 340° (NNW) 4,483 12.1 -32.1°
